Location: Hartford
(41.7640°N, 72.6860°W)
Time: 20:49:23
(UTC-04:00)

ISS - Visible Passes

Search period start: 22 October 2017 00:00
Search period end: 01 November 2017 00:00
Orbit: 401 x 408 km, 51.6° (Epoch: 23 October)

Date Brightness Start Highest point End Pass type
(mag) Time Alt. Az. Time Alt. Az. Time Alt. Az.
27 Oct -0.6 06:31:53 10° SSE 06:33:23 13° SE 06:34:54 10° ESE visible
29 Oct -1.8 06:21:55 10° SSW 06:24:47 29° SE 06:27:40 10° ENE visible
30 Oct -0.9 05:30:31 10° S 05:32:34 16° SE 05:34:38 10° E visible
31 Oct -3.7 06:13:30 13° SW 06:16:17 73° SE 06:19:32 10° ENE visible
